When you browse on this site, cookies collect data to enhance your experience and personalize the content and advertising you see.
Visit our Privacy Policy to learn more. By continuing to use the site, you agree to this use of cookies and data.
  • In Hungary
  • List of Countries
  • For 7 days
  • Water Temperature
  • Satellite Maps
  • Weather Map
  • News
  • Weather Widgets
  • user-avatar
    Login

    Hourly Weather Gabes

    Today, 21 April, Sunday

    Time Temperature Precipitation Wind Pressure Humidity
    00:00 +19°C° 0 mm 6 mps 755 mmHg 69%
    01:00 +19°C° 0 mm 5 mps 755 mmHg 69%
    02:00 +17°C° 0 mm 5 mps 754 mmHg 71%
    03:00 +17°C° 0 mm 5 mps 754 mmHg 74%
    04:00 +17°C° 0 mm 5 mps 754 mmHg 76%
    05:00 +17°C° 0 mm 5 mps 753 mmHg 73%
    06:00 +17°C° 0 mm 5 mps 753 mmHg 69%
    07:00 +19°C° 0 mm 5 mps 753 mmHg 66%
    08:00 +22°C° 0 mm 4 mps 752 mmHg 55%
    09:00 +25°C° 0 mm 4 mps 752 mmHg 43%
    10:00 +28°C° 0 mm 4 mps 752 mmHg 31%
    11:00 +30°C° 0 mm 4 mps 752 mmHg 27%
    12:00 +34°C° 0 mm 5 mps 751 mmHg 22%
    13:00 +36°C° 0 mm 5 mps 751 mmHg 18%
    14:00 +36°C° 0 mm 5 mps 750 mmHg 17%
    15:00 +37°C° 0 mm 5 mps 750 mmHg 16%
    16:00 +37°C° 0 mm 5 mps 749 mmHg 15%
    17:00 +35°C° 0 mm 4 mps 749 mmHg 19%
    18:00 +33°C° 0 mm 4 mps 749 mmHg 22%
    19:00 +31°C° 0 mm 3 mps 749 mmHg 25%
    20:00 +30°C° 0 mm 2 mps 749 mmHg 26%
    21:00 +29°C° 0 mm 2 mps 749 mmHg 28%
    22:00 +28°C° 0 mm 2 mps 749 mmHg 30%
    23:00 +28°C° 0.1 mm 3 mps 749 mmHg 31%

    Tomorrow, 22 April, Monday

    Time Temperature Precipitation Wind Pressure Humidity
    00:00 +27°C° 0.1 mm 3 mps 749 mmHg 33%
    01:00 +27°C° 0.1 mm 4 mps 749 mmHg 35%
    02:00 +28°C° 0 mm 6 mps 749 mmHg 29%
    03:00 +29°C° 0 mm 7 mps 749 mmHg 24%
    04:00 +29°C° 0 mm 9 mps 749 mmHg 19%
    05:00 +29°C° 0 mm 8 mps 749 mmHg 18%
    06:00 +28°C° 0 mm 7 mps 749 mmHg 18%
    07:00 +27°C° 0 mm 6 mps 749 mmHg 18%
    08:00 +29°C° 0 mm 7 mps 749 mmHg 18%
    09:00 +31°C° 0 mm 9 mps 749 mmHg 18%
    10:00 +32°C° 0 mm 10 mps 749 mmHg 18%
    11:00 +32°C° 0 mm 11 mps 749 mmHg 17%
    12:00 +32°C° 0 mm 13 mps 749 mmHg 17%
    13:00 +32°C° 0 mm 14 mps 750 mmHg 17%
    14:00 +32°C° 0 mm 13 mps 750 mmHg 18%
    15:00 +32°C° 0 mm 13 mps 750 mmHg 19%
    16:00 +32°C° 0 mm 12 mps 750 mmHg 20%
    17:00 +31°C° 0 mm 11 mps 750 mmHg 20%
    18:00 +31°C° 0 mm 9 mps 751 mmHg 21%
    19:00 +29°C° 0 mm 8 mps 751 mmHg 21%
    20:00 +29°C° 0 mm 7 mps 751 mmHg 22%
    21:00 +28°C° 0 mm 5 mps 752 mmHg 23%
    22:00 +27°C° 0 mm 4 mps 753 mmHg 23%
    23:00 +27°C° 0 mm 4 mps 752 mmHg 24%

    Day after tomorrow, 23 April, Tuesday

    Time Temperature Precipitation Wind Pressure Humidity
    00:00 +26°C° 0 mm 4 mps 752 mmHg 25%
    01:00 +26°C° 0 mm 3 mps 752 mmHg 25%
    02:00 +25°C° 0 mm 3 mps 752 mmHg 26%
    03:00 +25°C° 0 mm 3 mps 752 mmHg 27%
    04:00 +24°C° 0 mm 3 mps 752 mmHg 28%
    05:00 +24°C° 0 mm 3 mps 753 mmHg 27%
    06:00 +25°C° 0 mm 3 mps 753 mmHg 26%
    07:00 +25°C° 0 mm 3 mps 753 mmHg 25%
    08:00 +27°C° 0 mm 3 mps 754 mmHg 23%
    09:00 +28°C° 0 mm 2 mps 754 mmHg 21%
    10:00 +30°C° 0 mm 1 mps 754 mmHg 19%
    11:00 +31°C° 0 mm 2 mps 754 mmHg 18%
    12:00 +31°C° 0 mm 2 mps 754 mmHg 17%
    13:00 +33°C° 0 mm 3 mps 754 mmHg 16%
    14:00 +33°C° 0 mm 4 mps 753 mmHg 17%
    15:00 +33°C° 0 mm 6 mps 753 mmHg 18%
    16:00 +33°C° 0 mm 7 mps 753 mmHg 19%
    17:00 +32°C° 0 mm 6 mps 753 mmHg 22%
    18:00 +29°C° 0 mm 6 mps 753 mmHg 24%
    19:00 +28°C° 0 mm 6 mps 753 mmHg 27%
    20:00 +27°C° 0 mm 6 mps 754 mmHg 30%
    21:00 +26°C° 0 mm 6 mps 755 mmHg 32%
    22:00 +26°C° 0 mm 6 mps 755 mmHg 35%
    23:00 +25°C° 0 mm 5 mps 755 mmHg 38%

    24 April, Wednesday

    Time Temperature Precipitation Wind Pressure Humidity
    00:00 +23°C° 0 mm 4 mps 755 mmHg 40%
    01:00 +24°C° 0 mm 3 mps 756 mmHg 42%
    02:00 +22°C° 0 mm 3 mps 755 mmHg 46%
    03:00 +22°C° 0 mm 3 mps 755 mmHg 49%
    04:00 +21°C° 0 mm 3 mps 755 mmHg 52%
    05:00 +21°C° 0 mm 4 mps 755 mmHg 54%
    06:00 +21°C° 0 mm 4 mps 756 mmHg 56%
    07:00 +21°C° 0 mm 5 mps 756 mmHg 57%
    08:00 +22°C° 0.3 mm 5 mps 756 mmHg 54%
    09:00 +23°C° 0.3 mm 5 mps 756 mmHg 52%
    10:00 +25°C° 0.3 mm 5 mps 756 mmHg 49%
    11:00 +24°C° 0.3 mm 6 mps 756 mmHg 47%
    12:00 +26°C° 0.3 mm 6 mps 755 mmHg 45%
    13:00 +27°C° 0.3 mm 6 mps 755 mmHg 43%
    14:00 +27°C° 0 mm 6 mps 754 mmHg 44%
    15:00 +27°C° 0 mm 6 mps 754 mmHg 45%
    16:00 +27°C° 0 mm 6 mps 754 mmHg 46%
    17:00 +26°C° 0 mm 6 mps 754 mmHg 49%
    18:00 +25°C° 0 mm 5 mps 755 mmHg 52%
    19:00 +25°C° 0 mm 5 mps 755 mmHg 56%
    20:00 +23°C° 0 mm 6 mps 756 mmHg 56%
    21:00 +23°C° 0 mm 7 mps 756 mmHg 57%
    22:00 +23°C° 0 mm 8 mps 757 mmHg 58%
    23:00 +22°C° 0 mm 8 mps 757 mmHg 61%

    25 April, Thursday

    Time Temperature Precipitation Wind Pressure Humidity
    00:00 +21°C° 0 mm 8 mps 757 mmHg 64%
    01:00 +21°C° 0 mm 8 mps 757 mmHg 67%
    02:00 +20°C° 0 mm 7 mps 757 mmHg 70%
    03:00 +18°C° 0 mm 7 mps 757 mmHg 73%
    04:00 +19°C° 0 mm 6 mps 758 mmHg 76%
    05:00 +19°C° 0 mm 6 mps 758 mmHg 76%
    06:00 +19°C° 0 mm 6 mps 758 mmHg 76%
    07:00 +17°C° 0 mm 6 mps 759 mmHg 76%
    08:00 +20°C° 0 mm 6 mps 759 mmHg 70%
    09:00 +21°C° 0 mm 6 mps 759 mmHg 63%
    10:00 +23°C° 0 mm 6 mps 760 mmHg 57%
    11:00 +23°C° 0 mm 5 mps 760 mmHg 55%
    12:00 +25°C° 0 mm 5 mps 760 mmHg 52%
    13:00 +26°C° 0 mm 5 mps 760 mmHg 50%
    14:00 +26°C° 0 mm 5 mps 759 mmHg 51%
    15:00 +26°C° 0 mm 6 mps 759 mmHg 53%
    16:00 +24°C° 0 mm 7 mps 759 mmHg 54%
    17:00 +23°C° 0 mm 6 mps 760 mmHg 58%
    18:00 +22°C° 0 mm 6 mps 760 mmHg 61%
    19:00 +21°C° 0 mm 5 mps 760 mmHg 64%
    20:00 +21°C° 0 mm 5 mps 761 mmHg 64%
    21:00 +21°C° 0 mm 4 mps 762 mmHg 64%
    22:00 +21°C° 0 mm 4 mps 762 mmHg 64%
    23:00 +20°C° 0 mm 4 mps 762 mmHg 67%

    26 April, Friday

    Time Temperature Precipitation Wind Pressure Humidity
    00:00 +20°C° 0 mm 4 mps 762 mmHg 70%
    01:00 +19°C° 0 mm 4 mps 762 mmHg 73%
    02:00 +19°C° 0 mm 4 mps 762 mmHg 75%
    03:00 +18°C° 0 mm 3 mps 762 mmHg 77%
    04:00 +18°C° 0 mm 3 mps 762 mmHg 79%
    05:00 +18°C° 0 mm 4 mps 763 mmHg 79%
    06:00 +18°C° 0 mm 4 mps 763 mmHg 78%
    07:00 +18°C° 0 mm 4 mps 763 mmHg 78%
    08:00 +20°C° 0 mm 5 mps 764 mmHg 71%
    09:00 +21°C° 0 mm 5 mps 764 mmHg 65%
    10:00 +22°C° 0 mm 5 mps 764 mmHg 59%
    11:00 +23°C° 0 mm 5 mps 764 mmHg 54%
    12:00 +24°C° 0 mm 6 mps 764 mmHg 50%
    13:00 +26°C° 0 mm 6 mps 764 mmHg 45%
    14:00 +26°C° 0 mm 6 mps 763 mmHg 45%
    15:00 +24°C° 0 mm 6 mps 763 mmHg 45%
    16:00 +24°C° 0 mm 7 mps 763 mmHg 45%
    17:00 +23°C° 0 mm 7 mps 763 mmHg 47%
    18:00 +22°C° 0 mm 7 mps 763 mmHg 49%
    19:00 +22°C° 0 mm 7 mps 763 mmHg 51%
    20:00 +21°C° 0 mm 7 mps 764 mmHg 52%
    21:00 +21°C° 0 mm 6 mps 765 mmHg 52%
    22:00 +21°C° 0 mm 6 mps 765 mmHg 53%
    23:00 +20°C° 0 mm 5 mps 765 mmHg 55%
    Show more